CW5619 Weather Reports


time (UTC)temp
C
wind
direction
speed
KPH
gust
KPH
rain 1hr
cm
rain 24hr
cm
rain mn
cm
humidity
%
barometer
mb
20260904205904 36 338 4.8 11.3 0.00 0.25 0.00 30 1013.2
20260904204403 35 225 1.6 9.7 0.00 0.25 0.00 32 1013.3
20260904203903 35 211 3.2 8.0 0.00 0.25 0.00 34 1013.4
20260904203403 36 200 4.8 9.7 0.00 0.25 0.00 32 1013.5
20260904202904 36 228 1.6 14.5 0.00 0.25 0.00 33 1013.6
20260904202404 36 299 4.8 14.5 0.00 0.25 0.00 34 1013.7
20260904201903 35 242 4.8 11.3 0.00 0.25 0.00 36 1013.7
20260904201404 36 40 3.2 12.9 0.00 0.25 0.00 34 1013.8
20260904200903 36 233 4.8 12.9 0.00 0.25 0.00 35 1013.9
20260904200404 35 234 6.4 12.9 0.00 0.25 0.00 37 1014.0
20260904195904 35 147 3.2 8.0 0.00 0.25 0.00 36 1014.1
20260904195404 35 30 3.2 8.0 0.00 0.25 0.00 38 1014.0
20260904194903 35 212 1.6 4.8 0.00 0.25 0.00 39 1014.1
20260904194403 34 105 1.6 4.8 0.00 0.25 0.00 39 1014.2
20260904193903 34 56 1.6 11.3 0.00 0.25 0.00 40 1014.3
20260904192904 34 86 1.6 9.7 0.00 0.25 0.00 40 1014.4
20260904192403 34 193 3.2 9.7 0.00 0.25 0.00 39 1014.6
20260904191903 34 250 1.6 11.3 0.00 0.25 0.00 41 1014.6
20260904191403 34 230 3.2 11.3 0.00 0.25 0.00 40 1014.6
20260904190903 34 219 3.2 9.7 0.00 0.25 0.00 39 1014.6
20260904190404 33 55 3.2 8.0 0.00 0.25 0.00 40 1014.7
20260904185904 33 48 3.2 8.0 0.00 0.25 0.00 40 1014.8
20260904185403 33 38 3.2 9.7 0.00 0.25 0.00 40 1014.8
20260904184903 33 122 3.2 9.7 0.00 0.25 0.00 40 1014.9
20260904184403 33 183 1.6 9.7 0.00 0.25 0.00 39 1014.9
20260904183903 33 92 3.2 9.7 0.00 0.25 0.00 40 1015.0
20260904182903 33 39 3.2 9.7 0.00 0.25 0.00 41 1015.1
20260904181403 32 153 1.6 4.8 0.00 0.25 0.00 43 1015.3
20260904180904 32 94 3.2 8.0 0.00 0.25 0.00 43 1015.4
20260904180403 32 148 1.6 8.0 0.00 0.25 0.00 44 1015.4
20260904175903 32 240 3.2 9.7 0.00 0.25 0.00 44 1015.4
20260904175403 32 188 3.2 9.7 0.00 0.25 0.00 46 1015.4
20260904174904 32 141 1.6 12.9 0.00 0.25 0.00 50 1015.5
20260904174403 32 159 4.8 12.9 0.00 0.25 0.00 47 1015.5
20260904173904 32 80 3.2 9.7 0.00 0.25 0.00 51 1015.7
20260904173403 31 94 3.2 11.3 0.00 0.25 0.00 50 1015.8
20260904172904 31 165 1.6 11.3 0.00 0.25 0.00 51 1015.9
20260904172403 31 113 4.8 16.1 0.00 0.25 0.00 51 1015.8
20260904171904 31 113 4.8 16.1 0.00 0.25 0.00 53 1016.0
20260904171403 31 93 3.2 16.1 0.00 0.25 0.00 53 1016.0
20260904170903 31 140 1.6 12.9 0.00 0.25 0.00 54 1016.1
20260904170404 30 93 6.4 12.9 0.00 0.25 0.00 54 1016.2
20260904165904 31 118 3.2 16.1 0.00 0.25 0.00 56 1016.1
20260904165403 30 115 3.2 16.1 0.00 0.25 0.00 56 1016.0
20260904164904 30 142 4.8 14.5 0.00 0.25 0.00 55 1016.0
20260904164403 30 139 3.2 12.9 0.00 0.25 0.00 56 1016.0
20260904163904 30 103 3.2 12.9 0.00 0.25 0.00 57 1015.9
20260904162404 30 116 4.8 11.3 0.00 0.25 0.00 57 1015.9
20260904161903 30 95 6.4 12.9 0.00 0.25 0.00 57 1015.9
20260904160903 29 211 6.4 16.1 0.00 0.25 0.00 58 1015.7
20260904160404 29 99 3.2 12.9 0.00 0.25 0.00 58 1015.7
20260904155903 29 121 3.2 19.3 0.00 0.25 0.00 59 1015.8
20260904155404 28 41 4.8 19.3 0.00 0.25 0.00 59 1015.7
20260904154903 28 134 4.8 12.9 0.00 0.25 0.00 59 1015.7
20260904154404 28 151 3.2 19.3 0.00 0.25 0.00 59 1015.6
20260904153903 28 106 4.8 19.3 0.00 0.25 0.00 60 1015.6
20260904153404 28 92 4.8 12.9 0.00 0.25 0.00 60 1015.5
20260904152904 28 111 3.2 12.9 0.00 0.25 0.00 61 1015.7
20260904152404 28 109 4.8 12.9 0.00 0.25 0.00 62 1015.6
20260904151904 27 106 4.8 12.9 0.00 0.25 0.00 63 1015.6
20260904151403 27 92 3.2 11.3 0.00 0.25 0.00 62 1015.6
20260904150904 27 164 3.2 4.8 0.00 0.25 0.00 63 1015.6
20260904150403 27 99 1.6 12.9 0.00 0.25 0.00 64 1015.7
20260904145904 27 146 3.2 12.9 0.00 0.25 0.00 64 1015.5
20260904144903 27 119 3.2 16.1 0.00 0.25 0.00 64 1015.5
20260904144404 27 109 3.2 16.1 0.00 0.25 0.00 64 1015.5
20260904143904 27 145 3.2 11.3 0.00 0.25 0.00 64 1015.5
20260904143404 27 113 3.2 11.3 0.00 0.25 0.00 65 1015.5
20260904142903 27 143 3.2 11.3 0.00 0.25 0.00 65 1015.5
20260904141904 26 143 3.2 11.3 0.00 0.25 0.00 66 1015.4
20260904140904 26 156 3.2 11.3 0.00 0.25 0.00 67 1015.3
20260904140403 26 106 3.2 4.8 0.00 0.25 0.00 68 1015.3
20260904135904 26 139 1.6 9.7 0.00 0.25 0.00 68 1015.2
20260904135403 26 115 3.2 9.7 0.00 0.25 0.00 69 1015.2
20260904134904 26 137 3.2 4.8 0.00 0.25 0.00 69 1015.1
20260904134403 25 60 1.6 11.3 0.00 0.25 0.00 69 1015.0
20260904133903 25 114 3.2 11.3 0.00 0.25 0.00 69 1014.9
20260904133403 25 111 1.6 4.8 0.00 0.25 0.00 69 1014.8
20260904132903 25 109 1.6 4.8 0.00 0.25 0.00 69 1014.7
20260904131904 25 111 0.0 4.8 0.00 0.25 0.00 69 1014.7
20260904131403 25 117 1.6 4.8 0.00 0.25 0.00 69 1014.6
20260904130404 25 136 1.6 4.8 0.00 0.25 0.00 69 1014.5
20260904125904 25 119 1.6 4.8 0.00 0.25 0.00 69 1014.4
20260904125403 25 114 1.6 4.8 0.00 0.25 0.00 69 1014.3
20260904124903 25 121 3.2 4.8 0.00 0.25 0.00 69 1014.3
20260904122903 25 101 3.2 11.3 0.00 0.25 0.00 69 1014.0
20260904122403 25 98 3.2 11.3 0.00 0.25 0.00 69 1013.9
20260904121403 26 121 1.6 4.8 0.00 0.25 0.00 68 1013.8
20260904120903 26 132 3.2 8.0 0.00 0.25 0.00 68 1013.8
20260904120403 26 113 1.6 8.0 0.00 0.25 0.00 67 1013.7
20260904115903 26 125 1.6 4.8 0.00 0.25 0.00 67 1013.7
20260904115404 26 110 1.6 4.8 0.00 0.25 0.00 67 1013.8
20260904114904 26 95 1.6 4.8 0.00 0.25 0.00 67 1013.8
20260904114403 26 125 3.2 8.0 0.00 0.25 0.00 67 1013.8
20260904113904 26 97 1.6 8.0 0.00 0.25 0.00 67 1013.8
20260904113403 26 127 3.2 8.0 0.00 0.25 0.00 67 1013.8
20260904112904 26 170 1.6 4.8 0.00 0.25 0.00 67 1013.7
20260904112403 26 114 1.6 4.8 0.00 0.25 0.00 66 1013.6
20260904111904 26 107 3.2 4.8 0.00 0.25 0.00 66 1013.6
20260904111404 26 107 3.2 9.7 0.00 0.25 0.00 66 1013.7
20260904110903 26 113 3.2 9.7 0.00 0.25 0.00 66 1013.6
20260904105903 26 104 3.2 11.3 0.00 0.25 0.00 66 1013.6
20260904105404 26 117 3.2 11.3 0.00 0.25 0.00 66 1013.6
20260904104903 26 115 3.2 11.3 0.00 0.25 0.00 66 1013.5
20260904104403 26 108 4.8 11.3 0.00 0.25 0.00 66 1013.5
20260904103904 26 101 4.8 11.3 0.00 0.25 0.00 66 1013.5
20260904103404 26 112 3.2 11.3 0.00 0.25 0.00 66 1013.6
20260904102904 26 116 3.2 9.7 0.00 0.25 0.00 66 1013.6
20260904102404 26 99 3.2 9.7 0.00 0.25 0.00 66 1013.6
20260904101904 26 108 3.2 11.3 0.00 0.25 0.00 66 1013.7
20260904101404 26 118 3.2 11.3 0.00 0.25 0.00 66 1013.7
20260904100903 26 121 3.2 9.7 0.00 0.25 0.00 66 1013.6
20260904100403 26 87 3.2 9.7 0.00 0.25 0.00 66 1013.5
20260904095903 26 125 1.6 11.3 0.00 0.25 0.00 66 1013.5
20260904095404 26 103 3.2 11.3 0.00 0.25 0.00 66 1013.4
20260904094904 26 112 3.2 11.3 0.00 0.25 0.00 66 1013.4
20260904093904 26 112 3.2 12.9 0.00 0.25 0.00 66 1013.3
20260904093403 26 110 3.2 11.3 0.00 0.25 0.00 66 1013.3
20260904091904 26 122 4.8 12.9 0.00 0.25 0.00 66 1013.1
20260904091404 26 125 3.2 4.8 0.00 0.25 0.00 67 1013.1
20260904090404 26 121 3.2 9.7 0.00 0.25 0.00 67 1013.3
20260904085903 26 124 3.2 9.7 0.00 0.25 0.00 67 1013.3
20260904085403 26 116 3.2 4.8 0.00 0.25 0.00 67 1013.3
20260904084904 26 141 3.2 4.8 0.00 0.25 0.00 67 1013.4
20260904083904 26 107 3.2 4.8 0.00 0.25 0.00 67 1013.4
20260904083404 26 122 1.6 4.8 0.00 0.25 0.00 67 1013.4
20260904082903 26 133 1.6 4.8 0.00 0.25 0.00 68 1013.4
20260904082404 26 111 1.6 4.8 0.00 0.25 0.00 68 1013.5
20260904081904 26 116 1.6 8.0 0.00 0.25 0.00 68 1013.5
20260904081403 26 101 1.6 8.0 0.00 0.25 0.00 68 1013.5
20260904080904 26 111 3.2 4.8 0.00 0.25 0.00 68 1013.5
20260904080403 26 117 1.6 4.8 0.00 0.25 0.00 68 1013.6
20260904075904 26 175 1.6 11.3 0.00 0.25 0.00 67 1013.6
20260904075403 26 115 0.0 11.3 0.00 0.25 0.00 67 1013.6
20260904074904 26 108 3.2 11.3 0.00 0.25 0.00 67 1013.5
20260904074403 26 116 1.6 4.8 0.00 0.25 0.00 66 1013.6
20260904073904 26 121 3.2 4.8 0.00 0.25 0.00 66 1013.5
20260904073403 26 96 1.6 4.8 0.00 0.25 0.00 66 1013.6
20260904072904 26 134 1.6 8.0 0.00 0.25 0.00 66 1013.6
20260904072403 26 98 3.2 8.0 0.00 0.25 0.00 66 1013.6
20260904071904 26 114 1.6 8.0 0.00 0.25 0.00 66 1013.5
20260904071404 26 103 3.2 9.7 0.00 0.25 0.00 66 1013.6
20260904070903 26 145 1.6 9.7 0.00 0.25 0.00 66 1013.6
20260904070404 26 142 1.6 9.7 0.00 0.25 0.00 66 1013.5
20260904065403 26 90 3.2 9.7 0.00 0.25 0.25 65 1013.6
20260904064903 26 95 1.6 9.7 0.00 0.25 0.25 66 1013.6
20260904064404 26 165 3.2 8.0 0.00 0.25 0.25 66 1013.6
20260904063904 26 153 3.2 4.8 0.00 0.25 0.25 66 1013.6
20260904063404 26 101 1.6 4.8 0.00 0.25 0.25 67 1013.6
20260904062904 26 119 1.6 4.8 0.00 0.25 0.25 67 1013.5
20260904062404 26 158 1.6 3.2 0.00 0.25 0.25 67 1013.6
20260904061904 26 148 0.0 4.8 0.00 0.25 0.25 67 1013.6
20260904061403 26 114 1.6 4.8 0.00 0.25 0.25 67 1013.6
20260904060903 26 122 1.6 4.8 0.00 0.25 0.25 68 1013.6
20260904055904 26 119 0.0 4.8 0.00 0.25 0.25 67 1013.6
20260904055404 27 133 0.0 9.7 0.00 0.25 0.25 67 1013.5
20260904054903 27 140 1.6 9.7 0.00 0.25 0.25 67 1013.5
20260904054404 26 102 3.2 9.7 0.00 0.25 0.25 66 1013.4
20260904053904 26 143 0.0 4.8 0.00 0.25 0.25 68 1013.4
20260904053404 26 132 1.6 4.8 0.00 0.25 0.25 69 1013.4
20260904052903 26 101 1.6 4.8 0.00 0.25 0.25 71 1013.4
20260904051403 26 140 0.0 4.8 0.13 0.25 0.25 74 1013.3
20260904050903 26 118 1.6 11.3 0.18 0.25 0.25 74 1013.3
20260904050404 26 116 1.6 11.3 0.20 0.25 0.25 75 1013.3
20260904045904 26 132 3.2 9.7 0.20 0.25 0.25 75 1013.4
20260904044903 25 115 3.2 11.3 0.25 0.25 0.25 76 1013.5
20260904044404 25 113 3.2 11.3 0.25 0.25 0.25 76 1013.4
20260904043904 25 104 1.6 12.9 0.25 0.25 0.25 77 1013.4
20260904043403 25 83 1.6 12.9 0.25 0.25 0.25 77 1013.5
20260904042903 25 108 4.8 16.1 0.25 0.25 0.25 77 1013.5
20260904042403 25 101 6.4 16.1 0.25 0.25 0.25 76 1013.5
20260904041903 25 111 11.3 16.1 0.23 0.23 0.23 76 1013.7
20260904040903 26 112 4.8 14.5 0.08 0.08 0.08 72 1013.8
20260904040403 27 116 4.8 12.9 0.05 0.05 0.05 69 1013.8
20260904035904 28 213 3.2 11.3 0.05 0.05 0.05 66 1013.9
20260904035404 29 126 3.2 14.5 0.00 0.00 0.00 58 1013.6
20260904034903 29 103 3.2 14.5 0.00 0.00 0.00 55 1013.3
20260904034404 29 74 3.2 14.5 0.00 0.00 0.00 55 1013.2
20260904033904 29 104 4.8 14.5 0.00 0.00 0.00 55 1013.1
20260904033404 29 161 1.6 12.9 0.00 0.00 0.00 54 1013.0
20260904032903 30 134 4.8 14.5 0.00 0.00 0.00 54 1013.1
20260904032404 30 104 3.2 14.5 0.00 0.00 0.00 54 1013.0
20260904031905 30 91 4.8 12.9 0.00 0.00 0.00 54 1012.9
20260904031404 30 102 4.8 14.5 0.00 0.00 0.00 54 1012.7
20260904030904 30 143 4.8 19.3 0.00 0.00 0.00 54 1012.6
20260904030404 30 136 8.0 19.3 0.00 0.00 0.00 53 1012.6
20260904025904 30 143 4.8 16.1 0.00 0.00 0.00 53 1012.5
20260904025404 30 96 8.0 16.1 0.00 0.00 0.00 53 1012.3
20260904024403 30 115 4.8 12.9 0.00 0.00 0.00 53 1012.2
20260904023904 30 119 4.8 14.5 0.00 0.00 0.00 52 1012.1
20260904023403 30 124 8.0 14.5 0.00 0.00 0.00 52 1012.0
20260904022903 30 132 4.8 12.9 0.00 0.00 0.00 51 1012.0
20260904022402 30 110 3.2 14.5 0.00 0.00 0.00 51 1012.0
20260904021403 31 116 4.8 14.5 0.00 0.00 0.00 49 1012.0
20260904020903 31 99 4.8 14.5 0.00 0.00 0.00 48 1011.9
20260904020402 31 120 8.0 12.9 0.00 0.00 0.00 47 1011.9
20260904015903 31 106 3.2 9.7 0.00 0.00 0.00 46 1012.0
20260904015403 31 91 3.2 16.1 0.00 0.00 0.00 46 1011.8
20260904014902 32 127 4.8 16.1 0.00 0.00 0.00 44 1011.8
20260904014403 32 106 3.2 4.8 0.00 0.00 0.00 44 1011.6
20260904013902 32 160 3.2 9.7 0.00 0.00 0.00 44 1011.6
20260904013403 32 123 1.6 9.7 0.00 0.00 0.00 44 1011.5
20260904012902 32 132 3.2 12.9 0.00 0.00 0.00 45 1011.6
20260904012402 32 101 4.8 19.3 0.00 0.00 0.00 46 1011.5
20260904011903 32 95 3.2 19.3 0.00 0.00 0.00 46 1011.4
20260904011402 32 114 4.8 12.9 0.00 0.00 0.00 46 1011.3
20260904010902 32 110 4.8 12.9 0.00 0.00 0.00 46 1011.2
20260904010403 32 121 3.2 14.5 0.00 0.00 0.00 47 1011.2
20260904005902 32 109 3.2 14.5 0.00 0.00 0.00 47 1011.4
20260904005402 32 122 3.2 11.3 0.00 0.00 0.00 46 1011.2
20260904004902 32 100 3.2 11.3 0.00 0.00 0.00 47 1011.4
20260904004402 32 92 3.2 11.3 0.00 0.00 0.00 46 1011.5
20260904003403 32 109 4.8 14.5 0.00 0.00 0.00 46 1011.4
20260904002902 32 130 4.8 14.5 0.00 0.00 0.00 47 1011.5
20260904002402 33 87 4.8 12.9 0.00 0.00 0.00 45 1011.2
20260904001902 33 105 6.4 12.9 0.00 0.00 0.00 43 1011.0
20260904001402 33 82 3.2 4.8 0.00 0.00 0.00 41 1011.3
20260904000403 35 211 0.0 9.7 0.00 0.00 0.00 36 1011.2
20260903235902 35 277 1.6 4.8 0.00 0.00 0.00 37 1011.2
20260903235403 35 247 3.2 9.7 0.00 0.00 0.00 36 1011.2
20260903234902 35 92 1.6 9.7 0.00 0.00 0.00 36 1011.4
20260903234402 35 226 3.2 9.7 0.00 0.00 0.00 36 1011.4
20260903233902 35 186 3.2 9.7 0.00 0.00 0.00 36 1011.4
20260903233403 35 56 1.6 11.3 0.00 0.00 0.00 36 1011.4
20260903231903 35 197 1.6 11.3 0.00 0.00 0.00 37 1011.5
20260903231402 35 265 6.4 11.3 0.00 0.00 0.00 36 1011.5
20260903230403 35 9 3.2 8.0 0.00 0.00 0.00 38 1011.5
20260903225902 35 217 3.2 12.9 0.00 0.00 0.00 38 1011.6
20260903225403 35 319 1.6 12.9 0.00 0.00 0.00 37 1011.7
20260903224902 35 172 3.2 11.3 0.00 0.00 0.00 38 1011.7
20260903223903 35 207 3.2 9.7 0.00 0.00 0.00 38 1011.6
20260903223402 35 304 3.2 12.9 0.00 0.00 0.00 39 1011.6
20260903222903 35 222 4.8 19.3 0.00 0.00 0.00 39 1011.7
20260903222402 35 231 9.7 19.3 0.00 0.00 0.00 38 1011.8
20260903221403 35 216 4.8 12.9 0.00 0.00 0.00 38 1011.9
20260903220902 35 231 6.4 14.5 0.00 0.00 0.00 39 1011.9
20260903220402 34 229 3.2 14.5 0.00 0.00 0.00 40 1012.1
20260903215903 35 232 4.8 14.5 0.00 0.00 0.00 40 1012.1
20260903215402 35 228 3.2 11.3 0.00 0.00 0.00 38 1012.1
20260903214902 35 218 3.2 11.3 0.00 0.00 0.00 39 1012.2
20260903214402 35 209 6.4 11.3 0.00 0.00 0.00 39 1012.2
20260903213403 36 5 3.2 9.7 0.00 0.00 0.00 38 1012.2
20260903212903 35 179 3.2 12.9 0.00 0.00 0.00 38 1012.3
20260903212403 35 172 3.2 12.9 0.00 0.00 0.00 39 1012.3
20260903211902 35 10 4.8 12.9 0.00 0.00 0.00 39 1012.4
20260903211403 35 69 1.6 8.0 0.00 0.00 0.00 39 1012.5
20260903210403 35 51 1.6 9.7 0.00 0.00 0.00 40 1012.6